EA1IDU Weather Reports


Display with metric or nautical units.
time (UTC)temp
F
wind
direction
speed
MPH
gust
MPH
rain 1hr
in
rain 24hr
in
rain mn
in
humidity
%
barometer
mb
20260831041545 0 270 7.0 11.0 0.00 0.00 0.00 1 1023.5
20260831040516 0 270 8.0 15.0 0.00 0.00 0.00 1 1023.6
20260831035631 0 270 8.0 14.0 0.00 0.00 0.00 1 1023.6
20260831034601 0 270 7.0 14.0 0.00 0.00 0.00 1 1023.5
20260831033553 0 270 8.0 15.0 0.00 0.00 0.00 1 1023.4
20260831032607 0 270 8.0 14.0 0.00 0.00 0.00 1 1023.4
20260831031537 0 270 7.0 11.0 0.00 0.00 0.00 1 1023.6
20260831030548 0 270 6.0 13.0 0.00 0.00 0.00 1 1023.5
20260831025522 0 270 6.0 11.0 0.00 0.00 0.00 1 1023.4
20260831024614 0 270 6.0 14.0 0.00 0.00 0.00 1 1023.4
20260831023604 0 270 7.0 11.0 0.00 0.00 0.00 1 1023.3
20260831022559 0 270 7.0 11.0 0.00 0.00 0.00 1 1023.3
20260831021549 0 270 7.0 11.0 0.00 0.00 0.00 1 1023.4
20260831020538 0 270 7.0 14.0 0.00 0.00 0.00 1 1023.3
20260831015527 0 270 8.0 14.0 0.00 0.00 0.00 1 1023.4
20260831014522 0 270 7.0 11.0 0.00 0.00 0.00 1 1023.5
20260831013613 0 270 7.0 11.0 0.00 0.00 0.00 1 1023.3
20260831012625 0 270 8.0 13.0 0.00 0.00 0.00 1 1023.4
20260831011559 0 270 8.0 15.0 0.00 0.00 0.00 1 1023.3
20260831010549 0 270 9.0 14.0 0.00 0.00 0.00 1 1023.4
20260831005539 0 270 9.0 15.0 0.00 0.00 0.00 1 1023.5
20260831004555 0 270 7.0 13.0 0.00 0.00 0.00 1 1023.5
20260831003525 0 270 8.0 15.0 0.00 0.00 0.00 1 1023.4
20260831002616 0 270 8.0 15.0 0.00 0.00 0.00 1 1023.4
20260831001611 0 270 8.0 14.0 0.00 0.00 0.00 1 1023.3
20260831000601 0 270 8.0 11.0 0.00 0.00 0.00 1 1023.4
20260830235552 0 270 9.0 14.0 0.00 0.00 0.00 1 1023.3
20260830234548 0 270 8.0 14.0 0.00 0.00 0.00 1 1023.5
20260830233537 0 270 8.0 14.0 0.00 0.00 0.00 1 1023.5
20260830232528 0 270 8.0 15.0 0.00 0.00 0.00 1 1023.4
20260830231542 0 270 7.0 11.0 0.00 0.00 0.00 1 1023.5
20260830230614 0 270 7.0 14.0 0.00 0.00 0.00 1 1023.5
20260830225604 0 270 9.0 14.0 0.00 0.00 0.00 1 1023.3
20260830224600 0 270 8.0 14.0 0.00 0.00 0.00 1 1023.3
20260830223548 0 270 10.0 20.0 0.00 0.00 0.00 1 1023.4
20260830222538 0 270 9.0 15.0 0.00 0.00 0.00 1 1023.3
20260830221527 0 270 9.0 16.0 0.00 0.00 0.00 1 1023.3
20260830220602 0 270 9.0 15.0 0.00 0.00 0.00 1 1023.2
20260830215613 0 270 11.0 18.0 0.00 0.00 0.00 1 1023.0
20260830214603 0 270 7.0 11.0 0.00 0.00 0.00 1 1023.0
20260830213558 0 270 6.0 14.0 0.00 0.00 0.00 1 1022.9
20260830212549 0 270 7.0 15.0 0.00 0.00 0.00 1 1022.9
20260830211600 0 270 7.0 15.0 0.00 0.00 0.00 1 1022.9
20260830210534 0 270 7.0 14.0 0.00 0.00 0.00 1 1022.9
20260830205524 0 270 9.0 15.0 0.00 0.00 0.00 1 1022.8
20260830204613 0 270 7.0 14.0 0.00 0.00 0.00 1 1022.7
20260830203601 0 270 7.0 14.0 0.00 0.00 0.00 1 1022.5
20260830202549 0 270 6.0 11.0 0.00 0.00 0.00 1 1022.5
20260830201537 0 270 7.0 13.0 0.00 0.00 0.00 1 1022.3
20260830200525 0 270 9.0 15.0 0.00 0.00 0.00 1 1022.3